Theta_e
306 308 309 310 310 308 308 307 307 308 307 307 309 309 310 309 307 307 307 307 307 307 309 309 308 307 306 307 307 307 307 306 306 306 305 306 306 307 307 308 309 310 312 314 313 313 313 313 313 313 313 313 313 313 313 313 313 313 312 313 312 312 311 311 311 311 310 311 311 311 311 311 311 311 311 311 311 311 311 311 311 311 311 311 310 309
306 309 310 309 309 308 308 309 308 308 308 308 308 309 308 307 307 306 307 307 306 307 310 309 308 307 307 308 308 307 308 307 307 307 306 306 307 307 308 308 309 311 312 313 313 314 313 313 313 313 313 313 313 313 313 313 313 313 313 313 312 312 312 311 311 311 311 311 311 310 310 310 310 310 311 311 311 311 311 311 311 311 311 310 310 309
308 311 311 308 308 307 307 308 309 308 308 308 307 308 307 307 308 307 309 310 307 307 310 309 308 308 308 308 308 308 308 308 307 307 307 307 307 308 308 309 309 311 312 313 313 314 313 313 314 314 313 313 313 313 313 313 313 313 313 313 312 312 312 311 311 311 311 311 310 310 310 310 310 310 310 310 311 311 311 311 311 311 311 310 309 309
312 314 312 308 308 308 308 308 309 308 308 308 308 308 307 308 309 308 310 312 309 307 309 309 308 308 308 309 311 309 306 307 308 307 308 308 308 308 309 310 310 311 312 312 313 313 313 314 314 314 313 313 313 313 313 313 313 313 313 313 313 313 313 312 311 311 311 311 311 310 310 310 310 310 311 311 311 311 311 311 311 311 311 310 309 309
313 313 308 307 310 310 309 309 309 309 309 310 309 308 308 308 309 309 309 310 310 310 308 309 310 313 315 315 314 311 307 308 308 307 308 308 309 309 309 310 310 311 311 312 313 313 314 314 314 314 314 314 314 314 314 314 314 314 314 314 314 314 313 312 312 311 311 311 311 310 310 310 310 311 311 311 311 311 311 310 311 311 310 310 310 309
312 309 306 310 312 309 310 311 312 311 311 313 312 310 309 310 310 309 309 308 312 316 312 309 313 318 319 315 313 312 313 313 309 309 309 307 309 309 308 310 310 311 311 312 313 313 314 315 314 314 314 314 314 314 314 313 313 313 313 313 313 313 313 313 312 311 311 311 311 311 311 311 311 311 311 311 310 310 310 310 310 310 310 310 310 309
311 308 306 311 312 311 311 311 312 311 310 313 314 312 310 309 309 310 311 310 313 317 312 310 314 316 314 312 313 314 316 315 311 312 312 307 307 308 308 310 310 310 311 312 313 314 315 315 315 315 315 315 314 313 313 312 313 312 312 313 313 313 313 313 313 312 312 311 311 312 311 312 311 311 311 311 310 310 311 311 310 311 311 310 310 310
312 309 309 310 311 312 312 312 312 310 311 314 313 313 313 311 312 313 312 311 314 315 311 310 313 314 314 314 314 315 314 314 312 312 314 310 306 308 310 311 311 310 311 313 314 315 315 315 315 315 314 315 313 313 313 312 312 312 312 313 313 313 313 313 313 312 312 312 312 312 312 312 311 311 311 310 311 311 310 311 310 311 311 310 310 310
310 312 313 312 311 312 313 314 314 310 312 316 312 311 313 313 314 314 311 313 315 312 311 312 311 312 318 317 313 313 311 314 316 314 317 315 307 308 312 313 312 313 312 314 315 315 315 315 315 314 314 313 313 312 312 312 312 312 312 312 312 313 313 313 313 312 312 312 312 312 312 312 311 311 311 310 310 311 310 311 311 311 311 311 310 310
309 310 311 313 314 314 316 314 311 310 311 311 309 310 313 314 315 314 312 313 314 312 312 314 312 311 317 316 313 314 314 317 318 317 320 316 307 307 312 312 312 313 313 314 315 314 315 314 313 313 313 313 312 312 312 312 312 313 312 312 312 313 313 313 313 312 312 312 312 312 311 311 311 310 310 310 310 310 311 311 311 311 311 311 310 310
308 307 307 311 312 313 316 311 305 309 310 308 309 312 314 316 314 315 316 314 313 315 314 313 312 310 313 317 317 316 316 316 316 317 320 317 309 308 311 312 311 312 312 313 314 313 313 313 313 313 312 312 312 312 312 312 312 312 312 312 312 312 313 313 313 313 312 312 312 312 312 311 310 310 310 310 310 310 311 310 310 311 311 310 310 310
310 309 310 311 307 307 312 309 304 306 308 310 314 314 315 317 314 315 318 315 314 319 316 311 310 310 312 319 319 315 312 311 312 313 316 318 314 309 310 313 312 312 313 313 313 313 313 312 312 312 311 311 312 311 311 312 312 312 312 312 312 312 313 313 313 313 312 312 312 312 312 311 310 310 310 310 310 310 310 310 310 310 310 310 310 309
312 311 312 310 307 306 310 312 309 307 308 310 314 316 316 318 317 317 317 315 316 318 313 309 310 310 311 313 313 312 311 310 311 310 310 313 312 308 310 313 311 312 313 313 314 313 312 312 312 312 312 312 312 311 312 311 312 312 312 312 312 312 312 312 312 312 312 312 312 312 312 311 311 310 310 310 310 310 310 310 310 310 310 310 310 309
315 314 310 310 310 307 309 314 314 313 311 310 313 317 317 317 317 319 317 313 313 314 309 306 309 311 313 313 311 311 311 311 309 308 307 308 308 308 310 312 311 312 312 313 314 313 312 312 312 312 312 312 312 312 312 312 311 312 312 312 312 312 312 312 312 312 312 312 312 312 312 311 311 311 311 311 310 310 309 309 309 309 309 309 309 309
318 318 312 311 311 307 308 311 315 318 313 310 314 314 315 318 318 319 318 312 312 314 310 306 309 316 319 317 313 311 310 308 305 305 306 307 308 308 308 310 311 312 312 313 314 313 312 312 312 312 311 311 311 311 310 311 311 311 311 311 311 312 312 312 312 312 312 312 312 312 312 312 312 311 311 311 310 310 309 309 309 309 309 309 309 309
314 317 312 307 305 305 308 307 309 316 314 310 310 311 314 317 314 314 312 309 308 311 312 310 312 318 318 314 311 310 309 309 307 306 305 305 307 307 306 308 310 312 312 313 314 313 311 311 311 311 310 310 309 309 309 308 309 309 309 310 310 310 311 311 311 312 312 312 312 312 312 312 312 311 311 310 310 310 309 309 308 309 309 309 308 308
313 315 310 305 305 305 306 305 306 312 313 310 309 312 313 309 308 312 310 307 306 308 312 312 313 315 314 312 314 314 313 313 314 314 310 305 302 303 306 308 309 311 311 312 314 313 311 310 311 309 309 309 308 308 308 308 309 308 308 308 308 308 309 309 310 311 311 311 311 312 312 312 312 312 312 311 310 310 309 309 309 308 308 308 308 308
315 315 309 306 309 305 300 302 306 306 307 311 312 313 309 304 308 312 310 312 312 311 314 312 311 313 311 315 320 317 315 315 315 315 314 310 305 303 306 308 310 311 310 310 312 313 311 309 309 309 308 309 309 309 310 310 310 309 309 309 308 308 307 307 308 309 310 310 311 311 311 311 312 312 312 311 310 309 309 309 309 309 309 308 308 308
311 313 311 304 307 307 301 304 310 305 303 308 309 308 308 311 315 311 309 315 314 312 315 314 312 310 308 315 320 315 314 316 315 314 314 315 313 307 305 308 312 312 310 310 312 312 310 308 308 310 310 310 310 310 310 310 310 310 310 310 309 309 308 307 307 307 308 308 309 310 310 311 311 311 311 311 310 310 309 309 309 309 309 308 308 308
309 311 314 305 304 307 306 309 314 310 305 306 306 306 307 312 316 311 310 314 313 312 315 316 316 313 310 315 317 314 314 315 316 315 314 316 312 305 304 307 310 312 311 311 312 312 309 308 309 310 310 310 310 311 311 311 311 311 310 311 310 310 309 308 307 307 307 307 307 308 309 310 310 311 311 310 310 310 309 309 309 309 308 308 308 308
309 309 313 308 303 306 310 311 312 313 310 308 310 310 308 308 310 310 309 309 313 315 315 314 315 313 312 315 317 315 315 316 315 313 313 315 309 304 306 308 308 311 312 311 312 312 309 309 310 309 309 310 310 311 311 310 311 311 311 311 310 310 310 309 308 307 306 306 306 307 307 308 309 310 310 310 310 310 310 309 309 309 309 308 308 308
310 310 314 313 308 311 315 310 306 308 310 309 311 312 310 309 310 312 310 308 309 313 314 314 313 311 312 317 316 312 313 318 316 313 315 312 305 306 309 308 308 310 312 312 312 311 310 309 309 309 309 309 310 311 311 310 311 311 311 311 310 310 310 310 309 307 306 306 306 306 306 306 307 309 310 310 310 310 310 310 309 309 308 308 308 308
310 311 312 314 313 311 308 303 301 304 306 308 310 310 310 310 311 314 315 311 308 307 309 311 312 312 312 315 315 310 311 314 309 308 314 307 303 308 311 309 310 310 310 312 312 311 311 309 309 309 309 309 310 310 310 310 310 310 310 311 311 310 310 310 310 308 307 306 306 306 306 306 306 307 308 309 310 310 310 310 310 309 308 308 308 308
309 311 312 313 316 312 305 302 301 302 305 308 310 309 308 309 309 311 312 311 310 309 309 309 312 313 312 316 319 316 313 310 302 302 306 303 304 309 311 310 311 310 310 311 311 311 312 310 310 310 309 310 310 310 310 310 310 310 310 310 310 311 310 310 310 309 307 306 306 305 306 305 306 306 307 308 309 310 310 310 309 309 308 308 308 307
310 313 313 314 318 316 311 309 307 306 306 308 311 309 307 308 308 309 308 307 309 312 313 313 313 311 312 317 319 317 316 314 308 304 302 303 307 310 311 311 311 311 310 310 311 311 311 311 311 310 309 310 310 310 310 310 310 310 310 310 310 310 310 310 310 309 308 307 306 305 305 305 305 305 306 307 308 309 309 309 309 309 308 308 307 307
313 314 313 312 315 314 313 314 315 313 308 307 311 311 307 308 308 310 310 309 310 312 312 312 312 310 310 313 312 312 313 312 310 306 304 306 308 309 311 311 311 312 311 311 311 311 311 311 311 310 310 310 310 310 310 310 310 310 310 310 310 310 310 310 310 309 309 308 307 306 305 305 305 305 305 306 307 308 309 309 309 308 308 308 308 307
314 313 311 313 314 311 311 312 313 313 310 311 313 311 307 307 307 309 312 311 311 311 309 309 309 310 310 310 310 310 310 310 310 309 307 306 307 309 310 310 311 311 311 311 311 311 311 311 311 311 311 311 311 311 310 310 310 310 310 310 310 310 310 310 310 309 309 309 308 307 306 305 305 305 305 305 306 307 308 308 308 308 308 308 308 307
314 312 310 312 312 310 312 312 311 311 313 314 315 312 308 306 306 308 310 310 310 311 309 308 308 308 309 309 309 309 309 309 309 309 307 306 306 308 309 309 309 310 310 311 310 310 311 311 311 312 311 311 312 311 310 309 309 309 309 309 311 311 310 310 310 309 309 309 309 308 306 305 305 305 305 305 305 306 307 307 308 308 308 308 308 308
314 313 311 312 311 310 312 311 311 311 310 310 311 311 310 307 306 307 308 309 310 310 310 310 310 309 308 308 308 308 308 309 308 308 307 306 307 307 307 307 308 309 309 310 310 310 310 310 311 311 311 311 310 310 309 309 309 309 309 309 310 310 310 311 310 309 309 309 309 308 307 305 304 305 304 305 305 305 306 306 307 307 307 308 308 308
310 313 312 311 310 310 310 310 310 309 309 308 307 308 309 308 307 306 307 308 308 309 309 310 310 309 308 308 308 308 308 307 306 306 306 306 306 306 305 306 307 308 308 309 309 310 310 310 310 310 310 310 309 309 309 309 309 309 308 309 309 309 310 310 309 309 308 309 309 308 306 305 304 304 304 305 305 305 305 306 306 306 307 307 307 307
306 311 311 309 310 309 309 310 310 309 309 309 308 307 307 307 306 305 306 307 307 308 308 308 309 309 308 308 308 307 307 307 307 307 306 306 306 306 305 306 307 307 308 308 309 309 308 309 309 309 309 309 309 309 308 308 308 308 308 308 308 309 310 309 309 308 308 309 309 308 306 305 304 304 305 305 305 305 305 305 306 306 306 306 306 306
307 308 309 310 310 309 310 311 311 310 309 308 307 307 306 306 306 305 306 306 307 308 308 308 308 308 307 308 308 308 308 307 308 308 307 307 307 306 306 306 306 307 308 308 308 308 308 308 308 309 308 308 308 308 308 308 308 308 308 308 308 308 309 308 308 308 308 308 308 307 306 304 304 304 304 305 305 305 305 305 305 305 306 305 305 305
306 308 311 311 310 310 310 310 308 309 310 308 308 309 308 306 306 306 306 306 306 307 308 308 308 307 308 308 308 308 308 308 308 307 306 307 306 306 307 307 307 308 308 308 308 307 308 308 308 308 308 307 308 307 307 308 307 307 308 307 308 308 308 308 308 308 308 308 308 307 305 304 304 304 304 304 305 305 305 305 305 305 304 305 305 305
305 308 310 308 311 313 307 304 305 308 309 307 308 311 310 308 307 307 306 306 306 306 307 307 308 308 308 308 308 308 308 307 307 307 307 307 307 307 307 307 307 308 307 307 307 307 308 308 307 307 307 307 307 307 307 307 307 307 307 307 307 308 307 308 308 308 308 307 307 306 304 304 304 304 304 304 304 304 304 304 304 304 304 305 305 305
306 307 307 306 310 310 305 303 307 309 307 306 307 309 308 307 307 307 306 306 306 306 306 306 307 307 307 307 307 307 307 307 307 307 306 307 307 307 307 306 307 307 307 307 307 307 307 307 307 307 307 306 306 306 306 306 306 306 307 307 307 307 307 308 308 308 307 307 307 306 304 303 303 303 304 304 304 304 304 304 304 304 305 305 305 304
307 306 307 307 308 307 305 306 308 308 306 306 306 307 307 306 306 305 306 306 305 305 305 306 306 306 306 306 306 306 307 307 307 307 306 306 306 306 306 306 306 307 307 307 307 307 307 306 306 306 306 306 306 305 305 305 305 306 306 306 307 307 307 308 308 307 307 307 307 305 303 303 303 303 303 303 303 304 304 304 304 304 304 304 304 304
306 306 306 306 307 307 307 307 306 306 306 306 306 306 306 306 307 307 306 306 306 305 305 305 305 305 305 306 306 306 306 306 306 306 307 306 306 307 306 306 306 306 306 306 306 306 306 306 306 306 306 306 306 306 306 306 306 306 306 306 306 306 307 307 307 307 307 307 306 304 303 303 303 303 303 303 303 304 304 304 304 303 303 303 303 304
305 306 307 306 306 306 307 306 306 306 306 306 306 306 305 305 307 307 306 305 307 308 306 305 305 305 305 305 305 305 306 306 306 306 307 307 306 306 306 306 306 306 306 306 306 306 306 306 306 306 306 306 306 306 306 306 306 306 306 306 306 306 306 306 306 306 306 307 306 304 302 302 302 303 303 303 304 304 304 303 303 303 303 303 303 303
304 305 306 306 306 306 306 306 306 307 307 305 306 307 305 302 304 308 307 305 306 309 308 306 306 306 305 306 305 306 306 306 306 306 307 307 306 305 305 305 305 306 306 306 306 306 306 306 306 307 307 307 307 307 306 306 306 306 306 306 306 306 306 306 306 306 306 305 304 302 302 302 302 303 303 304 304 303 303 303 303 303 303 303 303 303
303 304 305 305 306 306 306 306 306 306 306 306 307 307 302 300 303 308 308 306 308 309 307 306 306 306 306 305 305 306 306 306 306 306 306 306 306 305 305 305 305 306 306 306 306 306 306 306 306 306 306 306 306 306 306 306 305 305 306 306 305 305 305 305 305 305 304 303 302 301 301 302 302 303 303 303 303 303 303 303 302 302 302 302 302 302
302 303 304 305 306 306 306 307 307 306 306 307 307 303 300 300 304 307 307 308 310 308 304 304 305 305 305 304 304 305 306 306 306 306 306 306 306 306 305 305 305 305 305 305 305 305 306 306 306 306 306 305 305 305 305 305 305 304 305 305 304 304 304 304 304 303 303 302 301 301 301 302 302 303 303 303 303 303 302 302 302 302 302 302 302 302
303 303 303 304 305 306 306 307 306 307 307 306 303 302 302 304 306 306 305 305 307 305 303 303 304 304 304 304 304 304 305 305 306 306 306 306 305 305 305 305 304 304 304 304 304 304 304 305 305 305 305 305 304 304 304 304 304 303 304 304 304 303 303 303 302 302 301 301 300 301 301 301 302 302 302 302 302 302 302 302 301 301 301 301 301 301
304 304 304 304 305 305 306 306 307 308 308 305 303 303 303 305 307 306 304 304 305 304 303 303 304 305 305 304 304 305 305 305 306 305 305 305 305 305 305 305 304 304 303 302 302 302 303 303 304 305 304 304 303 303 302 302 302 303 303 303 303 302 302 302 301 301 300 300 300 300 300 301 301 301 301 301 301 301 301 301 301 301 301 301 301 301
305 306 305 305 305 306 306 306 307 308 306 305 306 306 304 304 306 305 305 305 305 304 304 303 304 305 305 304 304 304 304 304 305 305 304 303 303 303 303 303 303 303 303 303 302 302 302 303 304 304 304 303 303 302 301 300 301 302 302 302 302 301 301 301 301 300 300 299 299 300 300 300 300 300 300 301 300 300 300 300 300 300 300 300 299 299
306 306 306 306 306 306 306 306 306 307 306 304 305 306 305 305 305 305 304 304 303 304 304 304 304 305 304 303 303 303 303 304 304 304 303 303 302 303 303 302 302 303 303 303 303 303 303 303 303 303 303 302 302 302 301 300 300 302 302 301 300 300 299 299 299 299 299 299 299 299 299 299 300 299 300 300 299 299 299 299 299 299 299 298 298 298
305 305 306 307 306 305 306 306 305 306 305 303 304 306 306 306 305 305 305 304 304 305 305 304 304 304 303 303 303 303 303 303 303 303 303 302 303 303 303 303 303 302 303 303 303 303 302 302 302 302 302 301 301 301 300 299 300 301 301 300 299 298 297 297 298 298 298 298 298 298 298 298 299 299 299 299 298 298 298 298 298 298 298 297 297 297
304 304 304 305 306 306 306 306 306 306 304 303 304 305 305 305 306 305 305 305 305 306 305 305 304 303 303 303 303 303 303 303 303 303 302 302 303 303 303 303 302 302 302 302 302 301 301 301 301 301 301 300 300 300 299 298 298 299 300 299 298 298 297 296 296 296 296 297 297 297 297 297 297 298 297 297 297 297 297 296 296 296 296 295 295 295
305 304 303 304 305 305 305 306 305 305 304 304 305 305 304 304 305 305 305 305 305 305 305 304 304 303 303 303 302 302 303 302 302 302 302 302 302 302 301 301 300 300 300 300 300 300 300 299 299 299 300 299 299 299 298 297 297 297 298 298 297 297 296 295 295 295 295 295 295 295 295 295 295 296 296 295 295 295 294 294 294 293 293 293 293 293
302 301 303 304 303 304 305 303 302 303 304 304 303 301 299 298 299 301 303 303 303 303 303 303 303 302 302 302 302 302 302 302 302 302 302 302 302 301 300 299 299 298 298 298 298 298 298 297 297 297 297 297 298 298 297 297 296 296 296 296 296 296 295 294 294 293 294 294 293 293 293 293 293 293 293 293 293 293 292 292 291 292 292 291 291 291
299 298 301 303 304 306 302 293 290 295 299 299 296 291 290 292 294 296 298 298 298 299 299 300 301 301 300 301 301 301 301 302 302 301 301 301 301 300 300 299 297 297 296 296 296 296 295 294 294 294 295 295 295 295 296 295 295 295 294 295 295 294 294 293 292 292 292 292 292 292 292 291 291 291 291 291 291 292 291 291 290 290 290 290 290 289
290 288 291 294 296 299 293 283 280 285 289 291 289 287 287 289 290 291 292 293 293 293 294 295 297 298 298 298 298 299 299 300 300 300 300 300 300 299 299 298 297 296 296 296 296 295 294 293 292 292 292 292 293 293 293 293 293 293 293 293 293 292 292 291 291 291 291 290 290 291 290 290 290 290 290 290 290 290 290 290 290 289 288 288 288 288
Wind_Speed
4 2 2 6 7 8 8 9 9 3 3 1 1 2 5 6 8 9 10 8 2 3 10 10 12 14 16 18 17 22 23 16 18 19 22 28 26 25 29 34 38 39 38 33 30 30 26 21 20 23 27 28 28 28 28 29 28 26 25 26 26 25 25 25 25 25 25 27 28 29 31 32 31 30 30 31 31 29 27 26 25 25 25 25 26 27
3 3 7 11 10 9 8 8 7 5 4 4 3 5 6 5 10 12 10 10 2 4 8 8 9 14 17 19 19 20 17 13 15 14 17 25 24 25 29 33 37 37 35 32 29 25 19 18 20 22 23 23 23 22 24 25 25 24 24 25 25 25 26 27 26 25 25 25 25 26 27 28 27 27 28 29 27 26 25 24 25 25 25 26 26 27
1 4 11 11 7 5 5 5 6 7 7 6 4 4 6 4 7 10 7 5 1 3 7 9 9 14 19 19 18 17 12 14 21 19 21 24 21 22 26 29 33 33 31 28 23 17 14 16 18 18 17 17 17 17 19 20 21 22 22 23 24 25 26 26 26 26 24 22 21 22 23 23 23 24 24 25 24 24 23 23 24 24 25 26 27 28
3 6 10 6 6 7 3 3 5 5 4 5 4 3 6 5 2 6 4 4 4 3 7 10 9 12 15 13 13 13 11 14 22 22 23 25 23 24 25 26 28 28 27 22 17 13 12 14 14 14 15 15 14 14 15 16 17 19 20 21 22 23 24 25 25 25 23 21 21 21 22 22 23 23 23 23 24 24 24 24 24 25 25 26 27 28
7 7 3 4 7 7 4 2 4 4 3 4 6 6 7 8 6 8 5 7 8 5 3 7 8 8 7 7 9 9 8 10 14 15 18 22 24 24 25 26 26 26 24 20 16 11 10 12 12 12 14 13 12 12 13 14 15 17 18 19 20 20 21 22 23 23 23 23 22 23 23 23 24 25 25 26 26 26 25 26 26 27 27 26 27 27
10 8 4 3 3 6 5 4 5 6 4 4 6 11 12 10 9 9 7 8 6 5 3 5 7 7 5 8 11 8 5 7 8 7 11 18 20 20 22 25 25 24 23 20 15 10 10 12 12 12 12 11 10 11 11 12 12 13 14 14 16 17 18 19 19 21 22 23 23 23 24 25 25 26 28 28 27 27 27 28 27 27 27 27 26 26
5 3 3 4 4 6 5 5 5 7 3 4 4 9 11 9 7 7 6 3 2 6 4 4 1 6 9 11 9 4 6 12 10 5 7 13 16 16 18 19 20 19 19 17 13 10 12 12 12 12 10 9 10 11 11 10 10 10 10 11 12 13 15 17 18 19 21 22 23 24 24 24 24 25 26 26 26 26 27 26 25 24 24 25 26 26
2 1 2 2 4 5 4 5 5 7 5 4 3 3 5 5 5 5 3 2 3 5 5 2 4 4 8 9 6 2 9 14 13 8 6 8 9 10 9 10 9 9 11 11 11 11 12 12 11 10 9 10 10 10 10 9 9 10 10 10 11 12 13 15 17 19 21 22 23 23 24 24 24 25 24 23 23 24 24 25 24 23 23 24 26 27
2 2 3 4 3 3 5 4 6 9 5 5 2 2 3 4 4 4 3 3 2 3 5 2 4 1 6 9 6 4 7 12 11 9 7 6 9 11 12 9 6 1 6 9 10 11 11 10 10 9 9 9 9 10 10 10 9 10 10 10 11 12 12 14 15 17 19 20 22 22 23 24 24 24 24 23 23 23 23 23 22 22 22 23 25 27
1 2 4 6 4 4 5 3 5 9 5 3 2 2 1 2 1 1 2 2 1 2 6 4 3 2 6 9 7 3 3 7 7 7 6 7 8 13 15 11 6 2 3 7 9 10 9 8 8 8 8 9 10 10 10 11 11 11 10 11 11 12 12 13 15 16 17 18 20 21 21 22 22 22 23 23 23 23 22 22 22 22 22 23 25 26
4 1 1 3 4 5 4 1 2 5 4 1 3 2 3 3 2 2 1 1 1 3 6 4 2 2 3 7 5 3 3 4 3 5 7 8 9 14 18 12 5 3 1 5 7 7 7 6 7 7 8 9 10 11 11 12 13 12 12 12 12 12 13 14 14 15 16 17 18 19 19 20 20 20 21 21 22 22 22 22 22 21 22 23 23 24
5 2 2 3 4 4 5 2 1 1 2 3 3 2 4 4 3 3 3 2 0 4 4 3 2 3 4 7 5 5 6 5 3 5 8 9 9 14 18 12 5 5 2 4 5 5 5 6 6 7 8 9 9 10 10 12 13 14 13 12 12 12 12 12 13 14 15 16 17 17 18 18 18 19 20 20 20 21 21 21 20 20 21 22 22 23
4 6 3 1 3 5 5 2 1 3 3 4 2 3 3 4 3 3 2 0 3 5 3 2 2 2 6 10 11 14 16 12 7 7 10 9 9 15 19 12 8 9 7 6 5 5 6 6 5 6 7 8 7 7 8 9 10 11 10 10 9 10 10 11 12 13 14 15 15 16 17 17 17 18 19 19 20 20 20 20 19 19 20 21 22 23
4 4 0 2 2 4 7 4 2 1 2 4 4 3 2 0 2 3 3 2 3 4 3 3 2 3 5 8 11 14 16 13 8 9 13 14 16 20 20 17 16 14 12 11 8 7 6 5 5 6 6 5 3 3 3 3 4 4 4 5 6 7 8 9 9 10 11 12 12 13 14 15 16 17 18 19 19 19 19 19 19 18 18 19 20 21
2 5 2 3 1 1 5 5 4 5 3 3 4 5 3 4 3 4 3 2 4 4 4 3 1 3 3 4 7 10 11 10 11 14 16 19 22 21 20 22 25 20 14 15 13 9 7 7 7 7 6 5 4 4 3 2 2 1 1 1 3 4 5 6 7 8 8 9 10 12 13 14 15 16 17 18 18 18 18 18 18 18 18 18 18 18
2 5 4 1 1 1 1 3 2 6 3 2 3 5 2 4 4 2 2 3 2 4 4 2 3 5 4 9 14 12 11 10 11 13 12 16 21 19 20 25 28 25 19 18 16 11 10 10 10 9 8 7 6 6 6 4 3 2 1 1 3 5 6 6 7 7 8 9 10 12 13 13 14 15 16 16 16 17 17 17 17 17 17 17 17 17
2 4 4 2 1 1 1 3 1 1 2 1 3 3 4 4 5 2 2 1 3 2 4 1 4 5 4 9 12 8 8 8 8 7 7 11 13 13 18 22 22 23 21 21 19 14 13 14 13 12 10 10 9 8 7 6 6 4 3 2 3 6 8 9 9 10 10 11 11 12 13 14 14 15 15 15 15 15 15 16 16 16 16 16 17 18
3 3 3 2 1 2 1 1 2 3 2 3 3 4 3 2 4 3 1 4 3 2 5 2 4 5 1 4 8 8 9 10 8 7 6 9 8 6 13 16 15 16 15 18 22 17 16 17 16 14 12 11 9 8 6 5 5 5 5 5 4 5 7 10 12 13 13 14 14 15 15 15 15 15 15 15 15 15 16 16 16 17 17 17 18 19
3 2 4 1 2 3 3 1 0 3 3 3 3 2 2 3 1 2 1 1 1 3 5 4 6 5 4 4 6 8 11 11 10 9 7 8 7 7 13 15 12 11 10 15 21 19 19 19 17 15 13 11 9 7 4 2 2 3 5 6 7 8 8 10 12 14 15 17 17 17 17 17 17 17 16 16 17 17 18 17 17 17 17 18 19 20
2 2 4 1 2 2 3 1 3 1 2 2 2 3 2 2 3 3 2 3 3 2 3 5 6 4 6 6 5 8 10 9 9 9 8 8 7 10 15 15 11 9 9 14 19 19 21 21 18 16 14 12 10 7 5 2 2 4 6 8 9 10 11 12 12 13 15 17 19 19 19 19 19 19 19 19 19 20 20 19 19 18 18 19 20 20
2 2 3 3 3 0 2 3 5 6 4 2 2 1 1 1 1 0 1 2 4 3 1 2 6 8 6 5 7 10 9 7 7 8 8 8 10 14 16 14 12 8 9 14 17 20 22 21 20 19 17 14 12 9 7 5 5 6 8 9 10 11 12 13 14 14 14 16 19 20 21 21 21 21 21 20 20 21 21 21 21 20 19 20 20 21
3 3 3 2 1 3 5 4 3 5 5 4 5 5 5 4 3 1 3 1 3 3 4 2 5 11 6 4 7 8 7 6 6 6 7 8 12 16 16 15 14 10 9 13 15 18 22 22 21 20 18 16 14 12 10 9 9 8 9 10 11 12 11 13 15 15 15 17 19 20 21 22 22 22 22 22 22 22 22 22 22 21 21 21 21 21
3 3 2 3 4 5 5 3 1 2 2 3 4 4 5 4 4 4 4 3 1 2 2 4 2 10 6 4 5 4 4 6 5 5 6 9 14 15 15 16 16 12 8 12 15 17 20 22 22 21 20 19 17 16 14 14 14 14 13 14 15 15 13 12 14 15 17 18 19 20 21 22 23 23 23 23 23 22 22 22 22 22 23 22 21 22
3 2 2 3 4 2 4 3 1 2 2 2 4 3 5 5 3 4 4 3 3 3 2 4 3 10 6 3 5 5 4 5 6 7 7 9 16 17 15 16 17 15 11 9 13 17 19 22 24 24 23 21 21 20 19 20 20 21 22 21 20 20 18 15 14 16 19 20 21 21 22 23 23 24 25 24 24 23 22 22 22 23 23 23 22 22
5 2 3 1 4 4 5 4 2 3 1 3 4 4 6 7 4 3 1 1 1 5 7 5 6 12 5 2 3 4 3 5 7 6 6 7 14 18 19 19 19 17 14 10 10 13 16 19 23 26 27 27 26 26 25 26 28 30 30 29 28 26 23 19 17 17 19 21 22 23 24 23 24 25 26 25 24 23 22 22 22 22 22 23 23 22
8 3 5 5 4 6 4 3 4 3 2 3 4 5 8 11 10 5 2 3 4 6 6 6 10 14 9 6 9 8 6 9 9 5 6 11 16 21 26 27 26 24 19 15 14 15 17 19 22 25 27 28 29 27 27 30 32 33 35 35 35 33 29 25 22 19 20 22 24 25 25 25 25 25 25 25 24 23 22 22 22 21 21 22 22 22
3 2 6 8 9 10 7 7 6 4 5 4 6 9 10 12 13 7 3 4 6 5 5 11 15 18 19 17 15 13 11 10 10 9 9 14 19 24 29 33 34 33 31 30 28 27 26 25 27 28 28 29 28 29 32 34 34 34 36 37 36 36 34 29 25 22 21 23 25 26 26 25 25 24 23 24 24 24 23 22 22 21 21 21 21 22
3 2 8 10 12 12 9 9 6 5 6 8 8 10 11 11 13 11 8 8 7 5 10 14 14 17 26 24 17 17 15 9 9 11 11 16 24 29 31 31 32 34 37 39 39 39 37 35 34 35 36 37 38 41 43 41 38 38 37 36 33 33 34 31 27 25 22 23 27 28 26 25 23 22 22 22 24 26 25 24 23 21 21 21 20 20
3 4 6 8 12 12 9 9 6 4 6 6 8 10 11 12 15 16 16 13 10 10 14 14 12 18 26 24 18 17 13 8 11 16 17 21 28 30 27 25 28 33 37 40 42 42 42 42 42 42 44 45 46 47 46 43 41 40 37 35 32 30 31 31 29 26 24 25 28 28 26 24 23 22 21 22 24 26 27 25 24 23 22 21 21 20
2 3 4 7 9 10 9 10 8 7 9 10 11 12 10 13 16 18 18 17 16 20 20 15 17 22 22 20 19 15 10 10 15 19 21 26 28 25 21 23 30 35 37 40 42 44 43 43 44 45 46 45 43 42 42 41 41 39 37 36 33 30 28 28 28 27 26 27 27 27 26 24 23 22 22 23 24 26 27 27 26 25 24 24 23 23
3 3 2 4 4 7 7 8 9 10 12 16 19 15 11 12 13 14 15 13 16 22 19 15 20 23 18 17 19 16 13 15 18 19 24 33 30 21 21 28 33 36 39 42 44 44 43 43 43 44 43 41 40 38 38 38 37 36 35 34 33 29 25 27 28 28 27 28 27 26 26 25 24 24 23 24 24 26 27 27 27 27 26 26 25 24
4 3 2 5 2 6 5 7 11 11 12 19 24 18 14 12 11 12 13 13 16 18 16 15 17 18 16 16 17 15 13 15 17 17 24 33 28 19 23 31 33 36 41 44 43 41 41 42 42 42 41 40 38 37 36 34 32 31 31 30 30 28 27 28 29 28 28 28 27 27 26 26 26 25 25 25 26 27 27 28 28 27 26 25 24 22
5 4 2 3 4 6 4 5 6 5 8 16 17 13 16 18 16 15 15 16 18 16 14 15 17 17 15 13 15 18 16 15 17 20 25 29 25 22 27 32 34 39 41 41 40 39 40 43 43 43 42 41 40 38 35 32 32 31 28 27 26 27 29 30 29 28 28 28 28 27 26 27 27 26 26 26 27 27 28 27 27 25 24 23 22 22
4 5 3 3 4 5 6 2 2 4 10 12 6 6 16 20 19 20 20 19 19 18 17 18 18 16 12 11 15 20 20 19 26 32 30 25 23 25 29 32 35 38 39 38 39 42 44 46 45 44 43 42 40 38 35 33 33 31 29 27 26 26 28 27 26 27 29 29 27 27 27 28 28 27 27 27 27 28 27 26 26 25 24 24 23 22
5 5 3 2 2 3 1 5 2 11 11 4 4 1 8 12 14 18 20 19 20 21 22 23 22 18 15 16 17 20 26 33 42 43 32 21 23 28 29 31 33 35 38 42 44 45 46 44 44 43 41 39 37 35 34 33 32 30 29 28 27 26 25 24 25 27 29 28 27 26 27 28 27 27 27 27 28 28 27 27 27 26 26 25 24 23
7 5 3 2 2 1 2 4 9 12 9 9 7 1 3 1 2 5 11 16 18 18 19 23 24 22 19 18 21 29 37 38 39 43 34 23 27 33 32 33 36 37 40 42 41 41 40 38 39 39 37 35 32 30 31 30 28 28 28 28 28 27 24 23 26 28 28 28 27 27 27 27 27 27 27 27 27 27 27 27 27 27 27 26 25 24
9 6 3 4 4 3 3 5 7 11 17 18 13 7 7 6 7 6 9 16 15 16 18 19 20 21 19 19 26 33 32 23 19 30 39 34 33 35 33 30 31 32 32 32 32 32 31 31 32 33 32 30 28 27 27 27 25 25 26 27 27 26 24 25 28 29 28 27 27 27 28 28 28 27 27 28 28 27 27 27 26 26 26 25 25 24
9 8 6 6 5 4 5 7 6 11 15 10 4 5 8 11 10 7 6 14 9 13 15 16 18 23 21 20 24 20 12 10 7 18 38 42 30 23 22 20 18 19 21 22 23 22 22 23 24 25 26 26 26 26 25 24 24 24 25 26 25 24 24 27 29 29 28 28 28 28 28 28 28 28 28 29 29 28 27 26 26 25 24 24 24 24
10 8 8 7 6 5 8 9 9 12 14 5 4 2 5 11 10 8 2 13 7 14 16 18 20 23 19 17 17 7 3 7 8 14 36 41 25 15 15 13 11 12 14 16 17 17 18 19 20 21 23 23 24 25 24 23 23 23 23 23 23 23 25 27 28 28 27 27 27 27 27 28 28 28 29 30 29 28 27 27 26 26 25 25 25 25
10 8 7 10 12 11 10 10 8 9 11 6 6 4 4 11 13 9 4 13 8 14 18 18 17 19 15 13 11 5 6 11 12 17 29 28 19 15 12 9 9 12 14 16 17 18 18 19 19 20 21 22 23 23 22 21 21 21 22 21 21 23 25 26 27 27 26 26 26 26 26 27 27 28 29 29 29 29 28 27 27 26 25 25 24 24
7 7 8 11 14 12 12 12 8 8 13 9 6 4 7 11 8 7 10 8 7 11 13 12 15 20 17 12 9 7 14 25 27 26 24 18 17 18 15 15 17 17 17 17 17 17 17 18 19 19 20 21 21 21 21 21 20 20 21 21 22 24 25 25 25 24 24 24 24 24 25 25 26 27 28 28 27 27 26 25 24 24 23 22 21 21
5 5 6 9 11 10 11 12 7 10 17 11 7 10 15 11 7 12 5 3 4 8 10 11 17 22 20 15 14 18 27 34 34 30 25 22 23 23 21 23 23 20 19 18 16 15 15 16 18 19 19 19 18 18 18 18 17 18 19 19 21 22 22 22 22 22 22 22 21 22 22 23 24 24 25 25 24 24 23 22 22 21 20 20 19 19
8 6 6 8 10 8 7 8 7 11 12 10 13 8 10 12 15 9 1 3 3 5 8 12 16 21 20 18 21 27 31 32 29 27 25 23 23 23 23 24 23 21 20 17 15 15 15 16 19 19 18 17 15 14 13 13 13 14 14 15 17 18 20 20 20 20 20 19 19 19 19 20 20 21 21 21 21 21 21 20 20 19 19 18 18 18
7 8 6 7 8 7 7 10 11 12 8 18 18 9 10 21 22 8 3 5 6 5 8 10 14 20 20 19 22 25 26 26 27 26 24 21 19 19 19 19 19 20 20 19 19 20 18 19 19 19 17 15 13 13 12 12 12 12 12 13 15 16 18 19 19 19 18 17 16 16 17 17 17 18 18 18 18 18 19 19 18 18 18 18 17 17
10 11 9 7 7 7 9 9 10 11 10 16 19 13 11 20 26 19 16 16 13 12 12 12 15 18 15 14 18 19 20 22 22 22 22 20 18 17 17 18 18 19 20 21 22 23 22 20 18 16 15 13 12 13 13 13 14 12 12 14 15 15 15 17 17 17 17 16 15 16 15 15 16 16 16 17 17 17 17 18 18 18 18 18 17 17
9 10 8 6 6 8 10 11 13 13 10 11 18 22 22 23 22 21 23 26 25 26 24 22 22 20 15 14 15 16 19 20 19 20 20 19 19 20 21 22 21 20 21 21 21 21 21 20 18 16 14 13 12 13 13 14 15 13 13 14 15 15 14 15 15 15 15 15 16 16 16 16 16 17 17 17 18 18 18 18 18 18 19 19 18 18
6 8 8 7 7 9 10 12 16 17 12 10 16 23 27 29 27 25 25 26 27 28 27 26 26 23 21 21 19 19 22 22 21 22 22 21 22 23 22 22 22 22 21 21 20 20 19 19 18 17 15 14 14 14 15 16 15 14 13 14 15 16 15 15 15 16 16 17 17 17 17 17 18 19 19 19 19 19 19 19 19 19 19 18 18 18
4 6 8 10 10 11 12 12 12 15 15 15 19 22 23 26 28 29 29 29 29 28 26 26 26 25 25 25 23 24 26 25 23 23 22 22 23 23 22 22 22 22 20 19 19 19 19 18 18 17 16 16 16 16 17 17 16 15 15 15 16 17 17 16 16 16 17 18 18 19 19 19 19 20 20 21 20 20 20 19 18 18 17 17 16 16
8 7 6 7 8 10 12 10 10 13 14 15 15 17 19 21 22 23 24 24 24 24 24 24 24 24 25 24 24 24 25 25 23 21 21 21 22 22 22 22 20 20 19 18 18 18 18 18 18 18 17 17 17 17 18 17 17 16 16 16 17 18 17 17 17 17 17 17 17 17 17 18 18 17 18 19 19 19 18 18 17 16 16 16 15 14
8 7 6 7 7 6 3 3 7 8 8 8 16 28 29 25 22 21 20 18 17 17 18 20 21 22 22 22 22 23 24 25 24 22 21 21 21 21 22 21 20 20 18 17 17 17 17 18 18 17 17 17 17 18 18 18 18 17 16 17 17 17 17 17 17 17 17 17 17 16 16 16 16 15 14 14 15 16 16 16 16 15 15 15 15 15
4 4 5 5 5 4 5 9 10 5 5 10 23 31 28 26 25 22 20 19 18 16 15 15 17 18 19 20 20 21 21 22 22 21 20 20 20 20 20 20 20 20 20 19 19 18 18 18 17 16 16 16 16 17 17 17 17 17 17 17 17 17 17 17 17 17 17 17 16 16 16 15 15 14 14 13 13 13 14 15 15 15 14 13 13 13
Wind_Direction
161 157 215 222 221 210 205 204 218 259 29 216 222 268 269 277 278 270 270 273 174 250 274 260 263 274 280 283 280 279 279 261 253 259 261 264 263 260 260 261 264 266 269 272 274 275 276 273 265 258 255 253 248 242 237 236 234 234 236 237 237 235 234 233 232 232 231 229 227 227 228 230 231 233 235 236 236 236 236 235 233 232 232 231 228 225
149 183 239 231 222 211 198 200 222 258 278 272 281 293 287 272 277 276 279 290 213 184 266 267 279 286 282 282 280 279 279 266 258 255 257 263 262 258 258 259 264 268 272 275 274 273 272 266 258 256 253 248 244 236 232 233 232 233 234 236 236 234 234 234 234 234 234 234 232 233 234 235 237 238 240 239 239 240 240 238 235 233 232 230 228 224
206 231 252 242 204 180 185 183 196 224 244 261 264 293 290 272 292 286 281 311 349 170 270 294 303 290 281 279 278 276 271 265 264 256 253 260 261 257 256 259 264 270 273 274 272 269 267 260 254 250 242 233 229 223 224 226 225 228 231 234 235 234 235 234 235 236 237 239 239 240 240 239 241 242 243 243 243 243 242 240 237 234 233 231 229 225
228 242 256 248 150 154 197 190 175 207 235 236 230 254 272 272 328 284 283 349 325 254 270 295 300 281 279 281 278 272 252 257 268 264 259 259 258 258 259 263 265 267 270 271 271 268 260 249 242 234 221 211 211 212 217 222 225 231 233 235 235 235 236 235 235 235 235 236 236 237 238 237 238 239 240 240 239 238 238 237 234 231 230 229 229 226
244 238 223 86 118 157 194 210 173 199 250 234 214 212 248 260 240 242 285 335 315 291 279 313 309 278 278 293 291 281 252 256 271 273 269 263 260 261 261 262 262 263 266 269 272 267 243 231 225 216 206 202 206 215 226 233 237 240 240 239 237 234 234 233 233 231 230 231 231 233 235 234 235 235 235 234 235 234 234 234 231 228 226 225 227 226
259 247 191 119 122 158 183 231 199 186 240 284 225 212 227 243 243 252 297 335 336 320 335 16 339 286 285 293 284 289 297 289 275 259 268 270 269 269 265 263 261 258 258 263 268 252 218 213 209 204 201 203 218 229 237 242 244 246 245 241 235 231 229 228 228 227 227 228 230 233 235 237 237 237 238 238 238 238 237 237 235 231 228 227 227 227
266 258 177 186 183 167 188 248 225 172 188 298 249 210 217 231 250 265 283 317 327 290 286 78 57 276 300 299 275 277 315 302 290 265 260 269 274 274 273 274 269 258 250 248 248 226 204 201 199 201 206 213 226 232 236 243 246 246 246 242 236 230 226 225 225 226 226 228 231 235 238 241 243 244 246 247 247 247 246 246 244 240 235 231 230 230
191 88 85 145 161 170 199 245 220 161 154 262 258 167 176 206 231 231 222 227 241 283 294 137 154 257 297 291 265 300 314 301 298 297 281 277 293 306 311 309 291 256 231 220 216 208 200 198 199 206 215 222 229 233 240 249 251 246 243 240 236 229 225 224 224 226 228 231 234 238 241 243 245 247 249 251 250 250 249 248 246 243 238 233 231 230
128 157 187 153 136 184 209 225 196 166 172 254 250 106 134 180 203 191 185 248 274 342 310 224 153 245 276 275 287 336 307 293 298 308 308 308 327 350 4 4 360 198 188 188 193 199 197 199 209 217 223 231 236 243 251 255 254 253 249 244 238 232 227 225 226 227 229 232 235 238 241 243 244 246 246 247 246 245 244 245 243 241 236 233 230 229
320 203 188 150 150 213 216 230 188 176 198 253 119 93 40 88 104 115 169 258 358 335 279 244 174 245 274 281 300 343 267 261 282 303 303 296 316 354 9 10 11 42 184 193 192 196 201 209 221 229 236 245 251 252 252 252 252 253 251 248 243 236 229 226 226 228 230 232 235 236 237 239 239 240 242 242 242 242 241 240 239 237 234 233 231 230
274 242 159 174 194 192 170 151 181 182 196 73 75 41 344 8 28 27 81 66 32 264 272 273 213 206 282 284 267 236 231 238 290 311 302 298 308 336 354 2 2 9 160 192 192 193 203 219 230 238 246 251 254 254 250 248 247 246 245 245 242 238 231 227 226 228 232 235 237 239 239 240 239 240 242 243 243 244 243 242 240 237 235 233 232 231
280 233 229 228 196 147 113 107 355 56 118 96 65 36 345 328 355 11 0 44 194 248 273 295 257 181 232 268 255 252 269 259 261 279 284 293 297 314 335 351 339 319 290 198 197 204 211 222 233 236 242 248 249 251 249 245 242 240 240 238 237 238 235 233 234 235 239 241 243 245 245 245 245 245 246 247 248 249 248 247 245 241 238 234 231 229
274 232 217 187 187 160 131 125 341 9 66 105 101 67 22 328 339 340 306 241 228 252 275 281 262 206 233 262 272 277 280 274 255 244 256 270 278 294 311 324 316 301 280 247 225 230 230 217 222 228 233 244 246 247 248 245 244 242 240 239 235 236 237 238 240 241 242 245 246 247 248 249 249 249 250 251 251 251 251 250 247 242 238 234 230 227
293 296 238 150 229 189 168 176 216 256 115 139 152 135 135 208 314 285 271 288 276 268 281 280 265 265 268 268 259 259 269 276 276 259 255 261 267 277 287 295 299 294 275 259 244 237 235 211 206 216 216 221 222 229 235 234 240 239 239 243 238 237 240 241 245 246 247 248 249 249 250 250 249 249 250 251 251 251 251 249 247 242 238 234 231 228
233 303 257 170 269 206 194 209 177 144 140 174 161 135 156 168 181 252 241 241 282 291 293 307 286 217 221 273 265 254 261 271 274 270 264 261 264 270 277 284 288 284 269 260 254 241 223 201 190 186 176 168 156 145 145 135 125 135 160 229 236 242 245 245 247 247 248 250 250 249 248 247 247 248 248 248 249 248 247 246 244 240 235 232 228 225
178 266 270 249 284 120 228 265 128 113 134 218 135 113 183 186 165 237 219 187 263 309 290 266 239 222 225 285 290 286 285 284 282 283 277 266 268 273 275 276 276 271 259 249 248 239 213 193 182 176 167 159 150 135 127 116 102 92 29 285 262 260 258 255 251 248 248 247 246 246 245 244 244 245 246 247 247 247 245 243 241 237 233 228 224 220
148 270 292 351 313 99 185 271 349 106 203 179 128 165 216 179 128 133 266 334 46 295 278 253 261 288 323 292 292 316 319 306 307 312 297 277 276 271 268 272 272 270 259 238 230 225 208 192 179 173 165 153 139 124 113 100 86 74 44 353 288 273 269 265 259 253 249 246 246 247 247 247 247 246 247 248 248 248 245 242 239 233 227 221 217 215
160 268 297 83 194 291 301 256 10 7 79 115 178 214 195 125 78 91 269 341 30 262 277 299 270 285 345 287 306 339 322 302 302 313 311 301 304 284 280 294 296 284 264 231 221 214 199 188 177 168 161 151 140 125 113 95 71 52 35 16 350 313 286 275 267 262 257 252 249 248 248 250 251 250 250 248 246 243 241 238 234 229 223 216 212 212
157 261 300 77 193 293 348 71 54 4 46 108 206 229 112 132 118 99 165 257 274 267 285 301 292 268 199 227 286 295 288 293 302 313 322 314 318 312 308 320 318 291 257 219 215 209 194 183 176 171 167 163 156 149 143 116 46 8 358 353 350 340 319 299 285 276 269 263 258 254 252 252 251 250 249 246 242 239 237 235 231 227 221 214 211 210
134 218 284 313 245 297 12 130 191 233 26 35 323 333 0 160 167 160 152 164 182 246 289 310 317 272 214 208 224 248 263 279 294 305 313 302 298 303 307 319 320 285 239 213 211 206 195 186 181 181 182 180 178 180 187 203 284 310 321 325 329 331 330 322 304 288 278 271 266 260 256 253 251 250 248 245 241 238 234 232 229 225 219 215 212 210
111 204 253 301 312 196 197 212 192 186 169 142 214 245 283 223 128 170 200 139 141 159 217 306 303 274 241 193 205 232 249 250 261 282 294 292 294 305 316 329 329 294 230 214 212 206 202 197 193 194 197 195 195 202 213 232 261 286 303 308 309 314 323 326 314 297 284 275 268 263 258 254 251 249 248 246 243 240 236 232 228 224 219 217 214 212
182 190 189 246 267 195 229 250 212 201 183 168 191 192 188 177 118 113 259 269 108 147 179 162 288 281 264 191 214 232 244 244 243 256 274 287 296 314 335 348 342 313 245 221 218 216 213 210 206 209 213 212 213 219 227 241 260 275 288 294 297 299 308 319 316 301 286 276 269 264 258 253 249 247 246 245 243 241 238 235 231 227 223 220 216 215
146 121 146 235 230 211 246 274 224 215 172 163 205 190 176 176 145 156 217 241 145 148 157 116 270 279 259 193 223 242 239 250 258 252 263 295 308 326 345 348 349 339 281 238 231 230 228 225 221 221 225 227 229 235 242 253 266 274 279 283 287 291 296 305 308 299 288 279 273 268 261 255 250 246 244 243 243 242 239 237 234 230 227 223 219 219
129 121 173 276 295 301 314 320 352 32 87 183 236 188 177 204 190 167 187 184 158 172 153 112 248 263 254 191 225 234 233 256 277 272 258 291 318 331 333 330 336 340 327 280 253 248 244 240 235 232 234 238 243 249 255 263 271 276 279 280 281 283 287 291 294 293 289 284 278 273 265 259 254 249 246 244 242 242 240 237 235 232 228 225 221 220
173 173 157 213 322 328 338 340 321 326 306 212 233 201 200 205 162 105 137 147 197 212 176 150 245 254 258 7 267 251 281 281 273 264 249 281 316 322 316 314 317 319 325 322 299 281 268 258 249 242 240 244 251 259 265 272 276 277 277 277 277 278 279 281 284 287 288 286 281 276 270 264 258 253 249 245 243 241 240 237 234 231 228 225 222 220
172 201 160 157 220 238 258 253 233 247 196 199 231 213 207 201 180 161 161 173 225 237 181 176 241 257 269 286 273 267 281 282 275 276 281 287 297 301 300 299 299 299 300 300 302 300 290 279 269 258 252 252 254 260 272 280 282 280 278 275 273 272 272 272 275 280 284 285 283 279 274 267 262 257 252 247 244 241 240 238 234 230 226 223 221 219
136 253 190 187 212 218 225 231 211 145 142 191 216 206 201 202 194 181 146 174 206 227 218 219 239 264 271 265 264 268 266 272 283 291 289 285 285 284 283 284 286 287 287 286 289 292 290 283 276 271 268 265 261 266 279 286 284 283 284 280 272 268 267 265 266 273 279 283 283 281 276 270 264 260 255 249 244 240 238 237 233 228 224 221 220 218
90 251 212 212 226 226 231 236 208 161 192 209 207 208 204 198 194 193 202 205 189 201 241 236 233 257 266 263 262 268 270 277 283 279 275 276 277 275 274 275 278 279 280 281 283 283 281 277 274 272 272 272 273 277 284 287 285 284 285 282 273 267 265 262 260 267 276 279 280 281 279 273 263 257 252 245 240 237 235 234 232 228 223 221 220 219
147 233 210 208 235 242 245 251 236 209 232 226 209 212 203 192 193 200 214 213 192 213 243 242 226 237 255 263 263 262 270 276 268 269 273 271 269 269 270 271 270 271 272 273 275 276 275 274 273 273 274 276 278 281 283 284 284 283 281 280 275 271 268 260 255 263 272 275 276 279 279 271 258 251 245 238 234 233 233 232 231 228 225 223 222 221
175 238 195 194 241 253 245 255 261 252 263 262 240 224 206 201 201 202 214 215 214 231 242 247 249 247 251 262 266 265 269 268 269 275 275 268 264 264 266 267 266 267 268 269 271 272 272 272 273 274 276 277 277 278 279 280 280 280 278 276 276 276 267 254 253 262 269 271 272 275 274 264 251 245 239 233 230 229 230 230 228 227 226 224 224 223
196 245 150 150 244 259 234 246 258 252 259 263 255 238 212 209 211 213 220 217 222 239 246 249 258 260 258 261 267 273 276 270 273 277 272 268 266 261 257 259 262 265 268 269 270 271 272 272 274 276 275 275 275 275 277 278 279 279 275 271 273 275 262 250 255 263 265 266 267 269 267 256 246 240 234 229 227 226 226 226 225 225 224 224 225 225
187 244 52 90 258 257 208 219 246 257 269 268 262 249 222 213 213 213 216 209 215 234 245 248 253 257 259 265 271 275 269 263 265 264 264 268 269 258 251 255 260 263 266 269 270 271 274 275 276 277 276 276 277 277 277 279 280 279 275 269 270 269 258 254 260 260 256 258 261 263 261 250 240 236 230 226 225 223 223 223 223 223 223 223 223 221
161 192 113 129 229 265 256 236 251 283 291 275 262 231 211 216 219 219 221 217 214 221 233 239 243 247 254 268 276 274 264 256 258 256 258 267 270 260 254 256 261 265 267 270 273 275 277 278 278 279 279 280 281 280 280 280 278 277 276 271 267 263 260 261 260 253 249 252 257 260 256 245 237 232 227 224 223 222 221 221 220 220 219 217 214 211
166 175 182 174 195 266 285 337 36 252 253 265 271 183 197 210 212 218 227 223 214 217 228 239 247 252 258 258 261 267 267 262 262 260 258 263 266 261 258 258 262 267 271 274 276 277 279 280 281 282 282 283 284 283 281 278 275 275 275 272 268 264 264 263 254 245 245 249 255 258 252 242 235 230 225 223 221 219 217 215 214 212 209 208 206 205
178 175 192 181 152 241 277 79 178 233 233 267 355 141 201 207 203 214 231 231 221 221 231 243 252 252 250 249 250 258 265 266 267 269 267 261 260 261 260 262 265 269 273 276 278 280 281 283 284 285 285 287 287 284 280 276 274 273 271 270 269 267 265 258 245 239 242 248 255 254 247 239 234 228 224 221 218 215 212 209 207 206 204 203 203 203
164 165 178 174 150 198 141 153 220 250 285 303 292 178 108 85 148 204 249 248 230 223 229 238 246 247 246 252 252 251 258 265 273 277 275 265 262 264 262 264 269 272 275 279 281 283 285 286 286 286 286 287 285 281 277 275 272 269 266 265 265 266 262 250 238 236 240 247 253 250 242 235 231 226 222 219 216 213 210 207 205 204 203 202 201 201
157 165 188 213 204 204 211 216 246 291 300 286 263 213 178 189 176 172 252 255 224 210 225 233 243 249 245 245 248 250 259 274 285 282 279 272 268 267 266 267 273 275 276 280 282 282 285 285 285 285 286 284 281 277 274 272 269 265 262 261 261 263 256 242 235 235 239 245 249 245 237 231 228 224 220 217 214 211 209 207 206 204 203 203 202 202
178 180 185 209 214 188 217 251 266 274 273 266 240 218 200 198 191 166 259 267 213 181 214 225 233 242 238 240 248 249 265 289 281 276 278 277 273 270 270 271 273 273 275 280 283 283 285 287 288 289 288 286 283 278 273 269 266 262 259 258 258 256 247 236 233 235 239 243 244 239 232 227 224 220 216 214 211 209 209 207 206 206 205 205 206 205
202 202 189 206 225 199 213 238 238 247 258 229 151 217 175 177 170 115 321 274 205 166 203 215 224 237 235 238 246 220 171 261 256 261 272 277 282 281 275 274 277 283 291 296 298 297 296 297 298 296 292 289 285 281 276 270 265 260 257 255 252 245 237 231 231 234 237 239 236 231 225 222 219 215 213 211 210 208 208 207 207 207 207 208 208 208
204 212 198 210 228 220 219 236 232 248 261 222 183 240 178 155 142 117 262 263 195 172 205 208 217 238 236 228 232 184 177 231 242 257 268 277 291 292 287 292 296 302 307 304 301 301 302 305 306 302 295 289 285 283 280 273 265 257 252 249 243 237 232 230 231 231 232 231 227 222 218 215 213 211 210 210 209 208 208 208 208 209 210 210 210 210
199 211 202 212 227 222 222 236 242 255 255 229 179 171 130 112 121 180 233 245 176 195 223 206 211 234 235 220 207 195 223 234 240 256 271 283 291 292 297 303 304 308 307 300 295 296 300 306 308 307 301 292 285 283 280 273 262 251 246 243 237 233 230 229 229 228 227 224 220 216 214 211 210 209 209 208 209 209 209 209 210 211 212 213 214 214
182 196 200 214 226 222 224 233 241 264 258 235 167 153 138 129 222 231 230 41 120 203 228 213 218 233 234 224 218 227 242 246 247 255 266 274 281 288 295 300 304 307 304 299 295 296 303 311 312 308 301 293 284 278 272 266 257 249 247 244 238 233 230 227 225 224 222 219 216 213 211 209 208 208 208 209 209 210 210 211 211 212 213 213 214 214
173 180 195 207 212 213 228 225 221 256 250 169 149 173 171 195 235 244 356 324 274 244 238 224 227 238 238 236 239 244 251 257 260 264 268 270 278 287 292 296 301 303 304 306 304 303 311 315 312 308 302 295 286 274 260 250 247 247 245 242 236 232 231 229 225 224 221 217 215 213 210 209 208 208 208 209 210 210 211 210 210 209 209 209 210 210
175 185 199 208 200 194 212 210 212 244 224 157 165 210 218 218 235 263 350 280 281 298 270 246 248 254 251 249 253 256 260 267 274 280 282 280 282 284 286 290 297 302 310 316 313 312 313 309 307 307 301 293 288 277 255 233 232 234 231 230 228 226 229 229 225 223 221 218 217 215 211 209 206 205 206 206 207 209 209 207 206 205 204 204 205 206
196 200 213 221 209 202 219 223 224 245 234 197 208 241 249 236 243 255 264 268 274 275 273 274 276 276 275 273 272 272 277 283 288 292 292 292 295 297 298 299 301 304 308 310 308 307 303 297 296 295 290 283 278 271 253 235 234 233 226 224 223 219 221 225 223 220 217 215 214 212 210 208 204 203 203 201 201 203 203 203 202 201 200 201 202 204
218 225 235 232 223 230 239 244 247 251 242 215 227 244 252 252 253 252 254 260 264 266 268 270 271 276 283 285 285 285 286 291 297 297 296 299 304 308 308 305 302 301 301 301 299 295 290 287 284 280 276 271 264 256 243 235 237 238 231 228 225 218 216 218 220 218 212 210 207 203 203 203 201 200 199 197 197 197 196 197 198 198 199 199 200 202
240 244 245 234 230 239 238 233 240 247 243 227 236 246 250 252 252 252 254 257 261 265 267 265 266 269 272 273 277 279 280 285 290 292 296 302 303 304 303 297 294 293 293 294 294 288 282 277 273 268 265 262 257 249 239 233 232 230 225 223 222 220 215 213 215 213 206 203 201 198 197 197 196 196 194 193 193 192 191 192 193 195 196 196 198 201
281 270 249 240 236 240 246 249 255 261 259 248 247 252 258 261 260 259 260 263 265 267 267 265 266 268 268 270 273 274 277 281 284 287 293 296 296 296 293 289 288 288 286 285 283 280 274 267 263 261 259 255 251 246 240 233 227 223 219 215 214 214 212 210 211 210 204 199 195 193 191 190 191 192 190 188 187 187 187 187 188 190 191 190 194 201
313 308 285 275 263 251 259 279 301 297 278 265 276 297 307 308 299 284 274 272 271 270 268 267 268 268 269 271 271 272 277 280 282 286 289 288 289 289 285 283 282 279 277 275 271 267 263 258 255 255 254 250 245 242 239 234 228 221 215 212 211 209 206 205 205 205 203 199 194 191 189 187 185 187 188 187 186 184 182 182 184 188 189 186 188 196
301 298 297 302 290 271 272 15 7 332 279 284 335 344 344 340 331 314 301 297 293 284 275 270 268 268 269 270 270 272 276 278 280 282 282 281 282 281 278 278 275 271 269 267 262 257 252 249 249 250 248 244 239 236 232 229 226 220 212 210 208 204 202 201 200 199 198 195 193 191 190 188 186 186 187 189 190 189 187 183 183 187 190 190 190 193
350 338 336 317 282 288 0 18 12 349 262 297 331 339 342 347 347 340 333 328 321 314 305 291 280 275 273 271 272 273 275 276 278 279 278 277 278 278 277 277 275 273 272 270 266 260 252 246 242 239 237 233 229 226 223 220 218 213 208 206 203 200 198 197 198 200 197 193 193 191 189 190 189 188 188 188 189 193 193 190 186 184 185 189 191 192